User: anonymous   Login
Location: Unspecified
(0.0000°N, 0.0000°E)
Time: 19:01:31
(UTC+00:00)
Language:

OPTOS - Orbit

View from above orbital plane
View from above orbital plane
View from above satellite
View from above satellite

Ground track
Ground track

The orbit data is extracted from the following two-line orbital elements,

1 39429U 13066P   17084.54098512 +.00000365 +00000-0 +74104-4 0  9991
2 39429 097.6632 092.2481 0146276 300.6925 057.9927 14.60388418177905
Epoch (UTC): 25 March 2017 12:59:01
Eccentricity: 0.0146276
inclination: 97.6632°
perigee height: 588 km
apogee height: 795 km
right ascension of ascending node: 92.2481°
argument of perigee: 300.6925°
revolutions per day: 14.60388418
mean anomaly at epoch: 57.9927°
orbit number at epoch: 17790

The dashed part of the orbit path shows where the satellite is in the earth's shadow,  

DLR